Tracking 19817 objects as of 19-Aug-2019
HD Live streaming from Space Station
objects crossing your sky now

ARIANE 44L DEB

Track ARIANE 44L DEB now!
10-day predictions


NORAD ID: 24751
Int'l Code: 1991-003K
Perigee: 384.9 km
Apogee: 23,577.8 km
Inclination: 7.4 °
Period: 412.4 minutes
Semi major axis: 18352 km
RCS: 0.9341 m2 (medium)
Launch date: January 15, 1991
Source: France (FR)
Launch site: FRENCH GUIANA (FRGUI)

Note: This is SATELLITE DEBRIS
aabbcc
Your satellite tracking list
Your tracking list is empty




NASA's NSSDC Master Catalog

Two Line Element Set (TLE):
1 24751U 91003K   19230.54594574 +.00001109 +00000-0 +11763-2 0  9991
2 24751 007.4232 074.8160 6318800 062.2172 347.3153 03.49193200266686
Source of the keplerian elements: AFSPC